Location: Newark
(13.6797°N, 8.5297°E)
Time: 17:54:25
(UTC+00:00)

Altair - Pass Details

Date: 03 February 2020
Orbit: 1502 x 1682 km, 47.2° (Epoch: 22 February)

Event Time Altitude Azimuth Distance (km) Brightness Sun altitude
Rises 03:52:34 0° 231° (SW) 4,710 - -29.1°
Reaches altitude 10° 03:55:38 10° 234° (SW) 3,749 - -28.4°
Exits shadow 04:01:35 42° 253° (WSW) 2,136 7.8 -27.0°
Maximum altitude 04:05:02 63° 313° (NW) 1,765 7.5 -26.2°
Drops below altitude 10° 04:14:51 10° 33° (NNE) 3,890 9.8 -23.8°
Sets 04:18:07 0° 37° (NE) 4,896 10.5 -23.1°
